Lid_Strength_Index
2 1 1 1 1 1 2 5 10 3 1 9 9 11 9 7 7 6 6 6 8 9 8 9 10 9 8 6 6 9 7 9 12 10 7 6 7 9 9 13 14 13 15 13
2 2 2 2 2 2 4 8 8 3 3 13 11 9 8 8 8 7 7 7 7 6 8 12 10 9 6 5 6 8 7 10 14 12 9 7 9 8 8 9 10 14 17 14
2 2 2 2 2 1 3 8 12 8 7 6 9 10 10 9 7 7 7 7 6 7 9 8 11 11 7 6 6 6 7 9 11 15 11 9 10 9 8 10 14 14 13 11
3 3 3 2 2 1 3 8 11 8 12 10 8 8 9 10 9 7 6 7 7 8 10 10 11 10 9 7 6 6 7 11 10 9 8 8 9 9 9 10 11 13 12 11
3 3 2 2 2 1 4 11 9 6 8 8 9 9 9 10 8 8 9 8 7 7 9 9 11 10 10 10 7 7 7 11 10 11 9 9 10 9 9 9 9 9 9 9
3 2 2 2 2 1 4 7 4 6 8 9 10 10 9 9 7 6 6 6 7 8 7 6 7 7 8 8 9 10 9 10 12 14 10 10 13 10 9 8 8 8 10 8
1 1 0 0 -0 0 4 6 4 8 10 9 9 8 7 8 7 8 6 5 7 5 4 5 6 7 8 8 8 7 10 10 11 14 14 18 10 7 7 8 8 7 7 6
0 0 1 1 0 -0 2 4 4 7 10 8 8 8 8 7 6 7 6 5 4 3 7 10 13 13 11 11 9 9 8 10 13 16 15 11 9 8 8 9 9 6 7 6
0 0 0 1 1 0 1 3 2 4 8 9 6 7 7 9 8 8 6 4 3 4 7 11 15 15 12 14 12 9 9 9 13 14 17 18 11 7 5 6 12 6 6 6
0 0 0 1 1 0 1 3 2 4 8 6 5 8 8 6 7 8 7 6 6 4 10 13 14 13 10 13 14 14 14 13 15 15 16 13 8 6 5 13 11 5 5 5
1 0 0 1 1 1 1 3 1 3 7 5 4 4 6 6 6 9 6 8 8 9 11 12 12 13 10 10 10 13 14 16 15 14 16 17 6 6 10 7 5 5 5 4
1 0 0 0 1 1 1 3 1 0 4 5 2 2 2 3 3 5 5 7 8 8 10 9 9 12 11 11 14 8 14 11 14 13 12 7 6 6 5 4 5 5 4 4
1 0 0 0 0 1 1 2 1 2 5 5 5 5 2 1 1 1 7 5 5 6 5 7 8 11 10 14 12 10 9 7 10 10 8 8 6 5 4 4 5 4 4 4
1 0 0 0 0 1 1 2 1 2 4 9 7 2 3 1 1 2 2 4 4 4 5 7 9 11 7 11 9 10 8 9 9 10 8 8 6 5 5 4 4 4 3 3
0 0 0 0 0 1 1 1 1 0 4 8 7 3 2 1 2 2 3 4 5 7 8 9 10 7 8 7 8 10 6 8 10 11 7 7 7 5 4 5 5 4 4 4
1 1 1 1 1 1 2 6 2 0 1 6 9 3 4 3 2 3 4 4 5 5 7 8 6 5 7 11 11 7 6 5 5 7 5 5 5 4 4 5 4 4 4 4
1 1 1 1 1 1 4 5 2 1 1 5 8 8 4 3 3 4 4 3 5 5 7 8 7 7 6 10 12 7 6 5 5 4 5 6 5 6 4 4 4 3 3 3
2 2 2 2 1 1 3 1 1 0 3 4 8 9 8 4 6 7 4 6 6 6 7 6 8 7 8 11 8 7 6 5 5 5 4 5 5 5 5 5 4 4 5 4
2 2 2 2 3 4 3 2 2 -0 3 7 8 10 12 6 6 6 6 5 10 5 9 8 7 10 12 11 10 8 6 6 6 5 5 5 6 5 5 6 7 6 5 5
2 2 4 7 4 2 2 3 4 5 4 5 9 7 11 7 8 9 8 7 10 11 9 6 10 11 11 11 11 9 9 7 6 7 8 7 6 6 6 7 6 6 6 6
3 5 7 3 2 2 5 7 8 7 9 7 8 9 10 8 10 11 8 11 10 13 11 11 12 12 12 11 12 10 11 9 8 7 7 7 6 6 7 8 10 12 12 14
4 4 3 3 5 8 9 10 9 9 11 8 9 9 9 11 6 9 9 11 11 15 9 12 16 14 12 12 12 12 12 11 11 10 11 11 11 11 12 13 14 14 15 16
1 3 6 7 9 12 12 13 11 12 11 9 9 11 10 8 7 10 10 13 13 12 14 15 16 15 14 14 14 15 14 14 14 14 13 13 14 14 14 15 15 16 17 17
6 8 11 11 11 12 13 12 11 11 11 11 11 10 11 11 12 13 13 13 13 14 16 19 17 15 15 15 15 16 16 16 16 16 16 16 16 17 16 16 16 17 18 17
10 9 13 12 10 10 11 10 10 11 11 11 10 11 10 12 13 12 12 14 18 18 19 18 16 15 15 16 16 16 16 17 17 17 18 18 18 18 18 17 17 18 18 19
11 13 13 12 12 13 12 12 12 11 12 12 11 12 12 14 14 16 17 18 20 19 17 16 15 16 16 16 16 16 16 16 17 17 17 18 19 19 19 18 18 18 18 19
13 14 13 12 12 13 12 11 12 11 11 13 13 15 16 13 17 19 17 20 18 17 17 17 17 16 17 17 17 17 16 16 16 16 17 17 17 17 18 19 18 18 18 18